Weather History for KBWI - November, 2011

Change the Weather History Date:

Sunday, November 20, 2011

  Actual Average Record
Temperature  
Mean Temperature 57 °F 45 °F  
Max Temperature 68 °F 55 °F 79 °F (1942)
Min Temperature 46 °F 35 °F 22 °F (1951)
Degree Days  
Heating Degree Days 8 20  
Month to date heating degree days 306 338  
Since 1 July heating degree days 594 685  
Cooling Degree Days 0 0  
Month to date cooling degree days 0 0  
Year to date cooling degree days 1558 1163  
Growing Degree Days 8 (Base 50)    
Moisture  
Dew Point 48 °F    
Average Humidity 62    
Maximum Humidity 71    
Minimum Humidity 52    
Precipitation  
Precipitation 0.06 in 0.11 in 2.30 in (1952)
Month to date precipitation 0.56 2.17  
Year to date precipitation 50.13 37.38  
Snow  
Snow 0.00 in 0.00 in 2.10 in (1961)
Month to date snowfall 0.0 0.1  
Since 1 July snowfall T 0.1  
Snow Depth 0.00 in    
Sea Level Pressure  
Sea Level Pressure 30.18 in    
Wind  
Wind Speed 5 mph (SW)    
Max Wind Speed 13 mph    
Max Gust Speed 20 mph    
Visibility 10 miles    
Events Rain    
T = Trace of Precipitation, MM = Missing Value Source: NWS Daily Summary

Daily Weather History Graph

Daily Weather History Graph

Search for Another Location

Airport or City:

Trip Planner

Search our weather history database for the weather conditions in past years. The results will help you decide how hot, cold, wet, or windy it might be!

Date:

Astronomy

Nov. 20, 2011 Rise Set
Actual Time 6:55 AM EST 4:49 PM EST
Civil Twilight 6:26 AM EST 5:17 PM EST
Nautical Twilight 5:53 AM EST 5:50 PM EST
Astronomical Twilight 5:21 AM EST 6:22 PM EST
Moon 1:23 AM EST (11/20) 1:35 PM EST (11/20)
Length of Visible Light 10h 51m
Length of Day
9h 53m
Waning Crescent, 27% of the Moon is Illuminated
Nov 20
Waning Crescent
Nov 25
New
Dec 2
First Quarter
Dec 10
Full
Dec 17
Last Quarter

Hourly Weather History & Observations

Time (EST) Temp. Dew Point Humidity Pressure Visibility Wind Dir Wind Speed Gust Speed Precip Events Conditions
12:54 AM 51.8 °F 39.2 °F 62% 30.24 in 10.0 mi SW 8.1 mph 17.3 mph N/A   Overcast
1:54 AM 53.1 °F 39.0 °F 59% 30.22 in 10.0 mi SSW 9.2 mph - N/A   Overcast
2:54 AM 53.1 °F 39.9 °F 61% 30.21 in 10.0 mi SW 6.9 mph - N/A   Overcast
3:54 AM 53.1 °F 41.0 °F 64% 30.19 in 10.0 mi SSW 5.8 mph - N/A   Overcast
4:54 AM 53.1 °F 42.1 °F 66% 30.18 in 10.0 mi SW 8.1 mph - N/A   Overcast
5:54 AM 54.0 °F 44.1 °F 69% 30.18 in 10.0 mi SW 8.1 mph - N/A   Overcast
6:54 AM 53.1 °F 44.1 °F 71% 30.19 in 10.0 mi SW 6.9 mph - N/A   Mostly Cloudy
7:54 AM 53.6 °F 44.6 °F 72% 30.19 in 10.0 mi SW 5.8 mph - N/A   Mostly Cloudy
8:54 AM 55.9 °F 45.0 °F 67% 30.20 in 10.0 mi SW 8.1 mph - N/A   Mostly Cloudy
9:54 AM 60.1 °F 46.9 °F 62% 30.19 in 10.0 mi WSW 9.2 mph - N/A   Overcast
10:54 AM 60.1 °F 46.9 °F 62% 30.21 in 10.0 mi WSW 6.9 mph - 0.00 in   Overcast
11:54 AM 64.0 °F 48.0 °F 56% 30.19 in 10.0 mi SW 9.2 mph - N/A   Overcast
1:54 PM 66.0 °F 48.9 °F 54% 30.15 in 10.0 mi SSW 4.6 mph - N/A   Overcast
2:54 PM 66.9 °F 50.0 °F 54% 30.16 in 10.0 mi WSW 4.6 mph - N/A   Overcast
3:54 PM 66.0 °F 50.0 °F 56% 30.16 in 10.0 mi SW 4.6 mph - N/A   Overcast
4:54 PM 64.0 °F 50.0 °F 60% 30.17 in 10.0 mi Calm Calm - 0.00 in   Overcast
5:54 PM 62.1 °F 51.1 °F 67% 30.17 in 10.0 mi SW 3.5 mph - 0.00 in   Overcast
6:54 PM 61.0 °F 52.0 °F 72% 30.17 in 10.0 mi SW 3.5 mph - 0.00 in Rain Light Rain
7:54 PM 60.1 °F 53.1 °F 78% 30.17 in 10.0 mi Calm Calm - 0.00 in   Overcast
8:54 PM 59.0 °F 54.0 °F 83% 30.17 in 9.0 mi Calm Calm - 0.00 in Rain Light Rain
9:54 PM 59.0 °F 54.0 °F 83% 30.16 in 10.0 mi Calm Calm - 0.01 in   Overcast
10:54 PM 57.0 °F 55.0 °F 93% 30.16 in 5.0 mi Calm Calm - 0.01 in Rain Light Rain
11:54 PM 57.0 °F 55.9 °F 96% 30.15 in 4.0 mi North 3.5 mph - 0.04 in Rain Light Rain